Home   Weather   Laukvik   Past weeks
Flag for Norway

Past Weather in Laukvik, Norway — Yesterday and Last 2 Weeks

Now
27 °F

Partly cloudy.


Feels Like: 21 °F
Forecast: 36 / 28 °F
Wind: 5 mph from Northeast

Location: Evenes

Current Time: Jan 22, 2020 at 10:36:18 pm

Latest Report: Jan 22, 2020 at 9:50 pm


Visibility: N/A

Pressure: 29.92 "Hg

Humidity: 100%

Dew Point: 27 °F

Location of LaukvikLocation

Past Weather in Laukvik — Graph

°F

Laukvik Temperature Yesterday

Maximum temperature yesterday: 36 °F (at 1:20 am)
Minimum temperature yesterday: 21 °F (at 11:20 pm)
Average temperature yesterday: 31 °F

High & Low Weather Summary for the Past Weeks

 TemperatureHumidityPressure
High45 °F (Jan 7, 10:20 pm)100% (Jan 8, 4:20 pm)29.98 "Hg (Jan 8, 4:20 pm)
Low21 °F (Jan 21, 11:20 pm)49% (Jan 7, 10:20 pm)28.56 "Hg (Jan 8, 7:50 am)
Average32 °F85%29.31 "Hg
* Reported Jan 7 9:20 pm — Jan 22 9:20 pm, Laukvik. Weather by CustomWeather, © 2020

Note: Actual official high and low records may vary slightly from our data, if they occured in-between our weather recording intervals... More about our weather records

Laukvik Weather History for the Previous 24 Hours

Scroll right to see more
 ConditionsComfort  
Time TempWeatherWind HumidityBarometerVisibility
9:20 pm
Wed, Jan 22
25 °FPassing clouds.3 mph100%29.92 "HgN/A
8:50 pm27 °FLight snow. Partly cloudy.2 mph93%29.95 "HgN/A
8:20 pm25 °FPartly cloudy.3 mph100%29.95 "HgN/A
7:50 pm25 °FPassing clouds.5 mph93%29.95 "HgN/A
7:20 pm27 °FPartly cloudy.1 mph93%29.98 "HgN/A
6:50 pm28 °FLight snow. Partly cloudy.No wind93%29.95 "HgN/A
6:20 pm27 °FPartly cloudy.No wind93%29.98 "HgN/A
5:50 pm28 °FPartly cloudy.No wind86%29.95 "HgN/A
5:20 pm28 °FLight snow. Passing clouds.6 mph93%29.95 "Hg5 mi
4:50 pm27 °FPartly cloudy.1 mph93%29.95 "HgN/A
4:20 pm27 °FPassing clouds.5 mph86%29.95 "HgN/A
3:50 pm28 °FPassing clouds.2 mph86%29.95 "HgN/A
3:20 pm27 °FPassing clouds.2 mph86%29.95 "HgN/A
2:50 pm28 °FPassing clouds.3 mph86%29.95 "HgN/A
2:20 pm28 °FPassing clouds.No wind86%29.95 "HgN/A
1:50 pm27 °FPassing clouds.2 mph86%29.95 "HgN/A
1:20 pm27 °FScattered clouds.3 mph80%29.95 "HgN/A
12:50 pm28 °FScattered clouds.3 mph80%29.95 "HgN/A
12:20 pm28 °FPartly sunny.2 mph80%29.92 "HgN/A
11:50 am28 °FScattered clouds.3 mph80%29.92 "HgN/A
11:20 am30 °FPartly sunny.8 mph75%29.92 "HgN/A
10:20 am28 °FBroken clouds.9 mph93%29.89 "HgN/A
9:50 am30 °FSnow flurries. Partly cloudy.12 mph93%29.86 "HgN/A
9:20 am30 °FSnow flurries. Ice fog.14 mph86%29.86 "HgN/A
8:50 am30 °FSnow flurries. Partly cloudy.12 mph93%29.83 "Hg6 mi
8:20 am30 °FSnow flurries. Ice fog.15 mph86%29.83 "Hg2 mi
7:50 am30 °FLight snow. Passing clouds.10 mph93%29.80 "HgN/A
7:20 am30 °FLight snow. Passing clouds.13 mph86%29.77 "HgN/A
6:50 am32 °FPassing clouds.13 mph80%29.74 "HgN/A
6:20 am32 °FSnow flurries. Passing clouds.8 mph93%29.71 "Hg6 mi
5:50 am32 °FSnow showers. Dense fog.14 mph93%29.71 "Hg1 mi
5:20 am34 °FMostly cloudy.10 mph87%29.68 "HgN/A
4:50 am32 °FLight snow. Partly cloudy.9 mph100%29.68 "Hg5 mi
4:20 am30 °FMostly cloudy.3 mph100%29.65 "HgN/A
3:50 am30 °FPartly cloudy.1 mph100%29.65 "HgN/A
3:20 am28 °FLight snow. Ice fog.5 mph93%29.62 "Hg1 mi
2:50 am27 °FLight snow. Ice fog.1 mph93%29.59 "Hg1 mi
2:20 am25 °FLight snow. Partly cloudy.1 mph93%29.56 "HgN/A
1:50 am23 °FSleet. Overcast.No wind100%29.56 "Hg3 mi
1:20 am21 °FOvercast.2 mph100%29.53 "HgN/A
12:50 am21 °FPartly cloudy.2 mph93%29.50 "HgN/A
12:20 am21 °FPassing clouds.1 mph100%29.47 "HgN/A
11:50 pm
Tue, Jan 21
23 °FPassing clouds.No wind100%29.45 "HgN/A
11:20 pm21 °FPassing clouds.3 mph100%29.45 "HgN/A
10:20 pm27 °FPassing clouds.1 mph100%29.39 "HgN/A
Weather by CustomWeather, © 2020

See weather overview

Advertising